📊 Raw Sensor Data
Showing records 44251 to 44275 of 85,033 total
| ID | Distance (ft) | Battery V | Battery A | Int Temp (°F) | Int Humid (%) | Ext Temp (°F) | Solar V | RSSI | SNR | Time Stamp |
|---|---|---|---|---|---|---|---|---|---|---|
| 40795 | 15.4 | 3.99 | 0 | 75 | 52 | 71 | 4.50 | -68 | 8 | 05/16/2025 07:45 PM |
| 40794 | 15.4 | 4.01 | 7 | 80 | 50 | 75 | 4.50 | -67 | 8 | 05/16/2025 07:30 PM |
| 40793 | 15.4 | 4.02 | -5 | 82 | 50 | 77 | 4.60 | -70 | 8 | 05/16/2025 07:15 PM |
| 40792 | 15.4 | 3.96 | 11 | 84 | 50 | 76 | 4.50 | -68 | 8 | 05/16/2025 07:00 PM |
| 40791 | 15.5 | 4.01 | 33 | 87 | 48 | 80 | 4.50 | -67 | 8 | 05/16/2025 06:45 PM |
| 40790 | 15.5 | 3.97 | 5 | 88 | 47 | 79 | 5.10 | -67 | 8 | 05/16/2025 06:30 PM |
| 40789 | 15.5 | 3.97 | 5 | 88 | 47 | 82 | 5.10 | -67 | 7 | 05/16/2025 06:15 PM |
| 40788 | 15.5 | 3.97 | 5 | 88 | 49 | 80 | 5.10 | -68 | 8 | 05/16/2025 06:00 PM |
| 40787 | 15.5 | 3.97 | 5 | 89 | 49 | 82 | 5.10 | -69 | 8 | 05/16/2025 05:45 PM |
| 40786 | 15.5 | 3.97 | 5 | 89 | 50 | 82 | 5.10 | -67 | 8 | 05/16/2025 05:30 PM |
| 40785 | 15.5 | 4.00 | 0 | 93 | 49 | 84 | 5.10 | -68 | 8 | 05/16/2025 05:15 PM |
| 40784 | 15.5 | 3.97 | 0 | 96 | 48 | 86 | 5.10 | -67 | 8 | 05/16/2025 05:00 PM |
| 40783 | 15.5 | 3.97 | 0 | 98 | 46 | 88 | 5.10 | -68 | 7 | 05/16/2025 04:45 PM |
| 40782 | 15.5 | 3.97 | 0 | 100 | 45 | 87 | 5.10 | -68 | 8 | 05/16/2025 04:30 PM |
| 40781 | 15.5 | 4.07 | 5 | 101 | 44 | 88 | 5.10 | -69 | 8 | 05/16/2025 04:15 PM |
| 40780 | 15.5 | 3.97 | 5 | 100 | 43 | 95 | 5.10 | -67 | 8 | 05/16/2025 04:00 PM |
| 40779 | 15.5 | 4.02 | 5 | 99 | 43 | 86 | 5.10 | -68 | 8 | 05/16/2025 03:45 PM |
| 40778 | 15.5 | 3.96 | 0 | 99 | 42 | 87 | 5.10 | -69 | 8 | 05/16/2025 03:30 PM |
| 40777 | 15.5 | 3.97 | 5 | 99 | 41 | 89 | 5.10 | -68 | 7 | 05/16/2025 03:15 PM |
| 40776 | 15.5 | 3.96 | 5 | 98 | 40 | 89 | 5.10 | -68 | 7 | 05/16/2025 03:00 PM |
| 40775 | 15.4 | 3.96 | 0 | 96 | 40 | 88 | 5.10 | -69 | 8 | 05/16/2025 02:45 PM |
| 40774 | 15.4 | 4.04 | 5 | 95 | 40 | 84 | 5.10 | -68 | 8 | 05/16/2025 02:30 PM |
| 40773 | 15.4 | 4.02 | 5 | 93 | 41 | 83 | 5.10 | -68 | 8 | 05/16/2025 02:15 PM |
| 40772 | 15.4 | 3.96 | 0 | 91 | 41 | 85 | 5.10 | -67 | 7 | 05/16/2025 02:00 PM |
| 40771 | 15.3 | 3.96 | 0 | 90 | 41 | 84 | 5.10 | -68 | 8 | 05/16/2025 01:45 PM |